Theta_e
352 352 347 340 336 339 340 343 342 342 342 342 342 340 339 337 339 339 339 337 335 333 333 334 334 335 335 332 329 331 335 337 338 339 341 341 341 341 342 341 341 341 340 340 339 339 338 338 337 337 336 336 336 335 335 335 333 332 333 335 336 338 340 340 341 341 341 341 341 341 341 340 341 342 341 341 341 340 340 340 340 340 340 339 339
352 350 347 340 337 339 340 344 343 343 342 343 342 340 339 339 341 340 339 337 334 333 333 334 334 335 334 331 331 334 337 339 340 342 342 342 343 343 342 341 341 340 340 339 338 338 338 338 337 336 336 336 336 335 334 335 335 333 334 334 336 338 339 339 340 339 339 340 340 341 340 340 340 340 340 340 340 340 340 340 340 340 340 339 340
350 349 349 342 338 340 342 343 343 344 343 344 342 341 340 340 342 340 340 337 335 333 334 335 335 335 333 333 334 335 337 339 341 342 342 342 343 342 341 341 341 339 340 339 338 338 338 337 336 336 335 336 336 335 335 336 334 333 334 334 336 338 338 339 339 339 339 339 339 340 340 339 339 339 339 339 339 338 337 337 338 339 339 339 339
349 348 349 344 339 339 342 344 344 345 344 344 343 342 341 342 342 340 340 337 335 333 335 337 336 335 334 336 336 336 336 338 341 342 343 342 340 341 341 341 340 339 339 338 338 338 338 338 336 334 333 335 336 336 336 336 334 333 334 333 335 338 339 339 339 340 340 340 341 341 341 340 340 340 340 339 339 337 336 334 334 334 336 337 337
348 348 348 346 344 342 341 344 345 346 346 345 344 343 342 342 341 340 340 338 335 334 337 338 338 337 336 337 336 336 337 340 341 342 343 341 339 341 342 341 340 338 339 339 339 339 338 338 337 335 333 333 334 335 336 335 333 333 333 332 334 338 338 338 338 339 339 340 341 341 341 341 340 340 340 339 338 338 337 335 333 333 334 334 335
348 347 348 347 347 346 342 344 345 346 347 346 345 344 343 343 341 341 340 338 336 336 339 339 339 337 336 337 337 339 340 342 342 342 342 341 341 342 342 340 338 338 339 339 339 339 339 338 338 337 335 332 329 330 332 332 332 332 333 332 334 337 337 336 337 337 338 339 339 340 339 340 340 340 339 337 336 335 334 335 335 334 334 334 333
348 346 347 346 347 346 343 343 345 346 347 346 345 345 344 343 342 341 340 339 336 338 340 339 337 337 338 338 340 341 342 342 341 341 341 342 341 341 341 339 339 339 339 339 340 339 338 338 338 338 337 335 330 326 327 330 332 331 332 332 333 336 336 336 337 337 337 338 337 335 336 338 339 339 338 337 336 334 332 332 335 335 335 334 333
347 346 346 345 346 345 342 343 345 346 347 346 346 345 344 343 343 342 340 339 338 339 338 337 337 339 340 339 341 342 342 341 339 340 341 341 341 341 339 339 339 339 340 339 339 337 337 338 338 338 338 336 334 330 326 328 331 331 332 332 333 334 334 333 335 336 336 337 334 331 333 336 336 337 337 337 337 336 334 333 333 334 334 334 333
346 345 344 345 347 344 341 343 345 346 347 346 346 345 345 344 344 342 341 339 339 339 337 338 339 341 341 339 341 341 339 338 337 339 341 341 341 339 338 339 339 339 340 339 339 339 338 339 340 339 338 337 336 334 328 326 329 331 331 331 332 332 330 330 334 335 335 334 334 335 335 336 336 336 336 336 337 337 337 334 332 333 333 333 333
346 346 345 345 346 342 340 343 344 345 346 346 346 345 345 344 344 342 342 341 339 339 339 340 341 340 340 340 340 338 338 338 338 340 341 342 340 338 336 338 340 340 340 339 340 341 340 340 340 339 338 338 336 334 330 325 325 327 330 331 330 328 328 332 335 333 331 331 333 336 335 336 335 335 335 335 336 335 334 333 332 332 332 332 333
346 347 345 346 345 340 339 341 343 344 344 345 345 345 345 344 343 342 341 341 341 340 339 341 341 340 338 339 338 336 338 340 340 341 342 342 338 336 337 338 340 341 339 339 341 341 341 341 341 339 337 337 335 334 332 328 325 323 326 329 327 326 330 333 335 332 331 332 333 335 335 335 335 334 335 334 333 333 332 332 332 332 332 332 332
347 347 346 347 342 337 339 341 343 344 344 344 345 344 344 343 342 342 341 342 342 340 339 341 340 338 338 339 337 336 339 340 340 340 342 341 337 337 339 340 341 341 340 340 340 340 341 341 339 337 336 335 334 334 332 330 327 322 322 324 324 328 332 334 336 333 333 336 335 335 335 334 333 333 333 332 332 331 331 331 332 332 331 331 331
348 347 346 347 341 338 340 341 343 345 345 344 345 344 343 343 343 343 342 342 341 339 339 339 338 338 340 341 340 339 339 340 340 340 342 340 336 338 341 341 341 340 341 341 340 341 340 340 338 335 335 335 335 334 333 330 326 323 319 319 326 331 332 333 334 333 335 336 334 334 334 333 332 332 332 331 330 330 330 330 330 330 330 330 330
347 348 347 346 343 341 341 341 342 343 344 344 343 343 343 343 343 343 343 341 340 339 338 336 338 341 342 342 341 341 339 338 338 339 341 338 336 339 341 340 341 340 340 340 341 341 340 339 336 335 334 334 335 334 333 330 327 322 317 319 329 332 333 335 333 333 335 335 335 334 333 333 331 331 331 330 330 330 330 329 329 329 329 329 329
348 348 346 345 343 341 341 341 343 343 343 343 343 342 342 342 342 342 341 339 338 337 337 337 340 342 342 342 341 341 338 337 338 338 339 338 337 339 340 340 340 340 340 341 341 340 340 338 335 335 334 335 335 334 332 330 327 323 318 323 330 332 334 336 334 334 335 334 334 334 333 332 331 330 330 330 330 330 329 329 329 329 329 328 328
348 347 345 343 342 341 340 340 342 342 342 342 342 341 340 340 340 339 338 337 337 337 338 340 342 342 343 342 341 341 339 338 338 337 337 337 337 338 339 340 340 340 340 340 340 339 338 336 335 335 334 335 334 333 332 329 327 325 323 328 332 333 335 336 335 335 335 334 333 333 333 331 330 330 330 330 330 329 329 329 329 329 329 328 328
347 345 345 343 343 343 341 339 340 341 341 342 341 340 340 339 339 338 338 338 338 338 340 342 343 343 343 342 341 340 339 338 337 336 336 336 336 337 338 339 340 340 340 340 339 338 337 335 335 335 334 335 334 333 332 330 329 327 327 330 333 333 334 336 335 335 336 336 335 334 333 331 330 330 330 330 330 329 328 329 328 328 328 328 328
343 343 344 343 343 343 343 341 339 339 339 339 339 339 339 339 339 339 339 340 339 340 342 343 343 343 342 340 339 338 337 337 335 335 334 333 334 335 337 339 340 340 340 339 339 338 336 334 335 334 334 335 335 334 333 332 330 328 329 331 334 334 334 334 334 334 336 336 335 334 332 330 330 330 330 330 329 329 328 328 328 327 327 327 327
340 342 343 342 343 342 344 342 340 340 337 337 337 336 337 338 339 340 340 340 341 341 342 342 343 342 340 338 337 337 337 336 334 334 334 334 333 334 336 337 338 339 339 339 338 336 335 334 334 334 334 334 335 334 334 333 331 330 331 334 336 336 336 335 334 334 336 335 334 333 331 330 330 330 330 329 329 329 328 328 328 328 328 327 328
340 342 341 340 341 341 342 341 342 341 338 338 337 335 336 337 338 339 340 340 341 340 340 341 341 340 338 337 337 337 337 336 335 334 335 335 335 334 334 334 336 337 338 337 336 335 335 334 333 333 334 334 335 335 334 334 333 331 333 336 336 336 337 336 334 334 335 335 334 332 330 330 330 330 330 329 329 328 328 328 328 328 327 327 327
340 341 341 339 340 340 340 341 342 341 340 340 338 337 336 336 337 337 338 339 339 338 339 339 339 339 338 337 337 338 338 338 338 337 335 336 337 336 334 332 334 335 335 335 335 335 334 334 333 333 334 334 335 335 334 334 334 332 334 337 337 338 337 336 335 333 334 334 333 330 330 331 330 330 329 329 329 328 328 328 328 328 327 326 326
341 341 340 339 340 340 340 341 341 341 341 341 339 338 336 337 337 336 336 336 336 336 337 339 339 339 338 338 337 338 339 339 339 338 337 338 338 337 335 334 334 334 333 333 333 333 333 332 333 332 334 334 336 337 335 334 334 334 336 337 338 338 338 337 336 334 335 334 332 330 330 331 330 330 329 329 329 328 328 327 327 327 326 326 326
340 340 340 340 340 340 341 342 342 342 341 341 341 339 338 339 338 337 337 336 336 337 338 339 340 340 339 339 339 340 339 338 338 339 338 339 338 337 337 336 335 334 332 332 332 332 331 331 332 332 333 334 336 338 337 337 335 333 335 338 338 338 337 337 336 333 334 334 332 330 330 330 330 330 329 329 329 327 327 327 327 327 326 326 325
339 340 340 340 341 340 341 342 342 341 341 342 342 341 341 341 340 339 339 338 338 339 338 339 340 339 340 340 339 340 339 338 337 338 338 338 338 338 338 337 336 335 333 332 331 331 331 330 330 330 331 333 335 337 337 339 337 334 336 338 338 337 337 337 335 333 334 334 331 329 329 329 330 330 330 329 329 328 327 327 327 326 326 326 324
340 340 339 340 342 341 342 341 340 341 342 341 341 341 340 341 341 339 338 337 337 339 338 338 339 338 339 339 337 337 337 337 336 337 338 337 337 337 337 337 337 336 334 333 332 330 330 331 331 330 332 333 335 336 335 338 338 337 338 338 337 337 337 336 335 333 335 333 330 330 330 330 330 330 330 329 328 327 327 327 326 326 326 325 323
341 341 339 340 342 341 341 340 338 340 342 341 340 340 340 342 340 338 338 338 339 340 339 339 339 337 338 338 337 336 336 337 336 337 337 336 336 336 335 335 335 334 334 334 332 331 332 333 332 332 334 334 334 335 335 337 338 338 337 337 336 336 336 336 335 334 336 333 332 332 332 331 330 330 330 329 327 327 327 326 326 325 325 325 323
342 342 340 341 342 341 341 340 339 340 341 340 340 341 342 343 340 339 340 339 340 341 340 340 338 338 338 337 337 336 336 336 336 336 335 335 335 335 335 334 333 333 333 333 333 332 333 333 334 334 334 334 334 335 335 335 336 336 337 337 337 335 335 335 334 335 335 334 333 333 333 332 328 327 328 328 327 327 327 326 326 324 324 325 324
342 342 341 341 341 341 341 341 340 340 339 339 340 341 341 341 340 340 341 340 341 341 340 340 338 338 338 336 336 335 335 335 334 334 335 337 336 336 336 334 334 333 334 334 334 334 334 334 334 334 334 333 333 334 334 334 334 335 337 337 336 335 334 334 334 335 335 333 333 333 333 331 326 325 327 328 327 327 327 327 327 324 321 323 324
341 342 342 342 341 341 342 340 340 340 338 339 340 340 340 341 341 340 340 340 341 340 340 340 339 339 339 338 338 335 334 336 336 335 336 338 337 336 336 335 335 335 336 336 335 336 336 336 336 336 335 333 332 332 332 332 332 334 336 336 335 334 335 334 334 335 335 334 334 333 332 331 327 326 326 327 328 328 328 327 327 326 321 320 322
342 343 342 342 342 341 342 341 341 341 340 341 341 341 340 341 340 339 340 339 338 338 338 340 340 341 341 340 340 338 335 336 337 337 337 337 337 336 335 335 335 335 336 337 336 336 335 335 335 335 336 335 333 332 332 332 332 333 335 336 335 335 334 334 334 334 334 334 333 331 331 331 329 328 327 327 328 328 327 327 327 326 322 321 324
342 343 341 341 342 342 342 341 341 341 341 342 341 341 339 339 340 339 339 338 336 337 338 339 339 340 340 340 340 339 337 336 336 337 336 336 336 336 335 335 335 335 335 335 334 335 335 334 333 333 335 336 335 333 332 333 332 332 333 335 335 334 334 333 333 333 333 333 332 331 330 329 329 329 329 327 327 327 327 327 327 326 325 325 325
342 343 342 341 342 342 341 342 342 341 342 341 341 341 340 340 340 339 339 339 337 337 338 337 337 337 337 337 337 337 337 337 338 337 335 334 335 336 336 336 335 335 335 333 332 334 336 334 333 334 335 335 334 333 333 333 332 332 333 333 333 333 333 332 332 331 332 332 332 332 330 329 329 329 330 329 327 326 327 328 327 327 327 326 324
343 344 343 342 342 341 338 341 342 341 341 341 340 340 340 340 340 339 339 339 337 335 336 336 336 336 335 336 337 337 337 339 339 338 336 336 337 337 337 337 336 336 336 335 334 335 335 334 333 334 334 334 334 333 334 334 333 334 335 335 333 333 332 332 332 331 331 331 331 332 331 331 330 329 329 329 328 327 327 328 327 327 327 326 324
343 343 343 342 342 341 338 340 341 340 340 340 339 339 339 339 340 340 338 337 336 335 335 336 336 336 337 337 335 336 337 337 338 337 336 337 338 338 337 337 338 337 337 337 336 335 335 334 334 334 334 334 335 335 335 335 335 336 337 336 334 333 332 332 334 333 332 332 332 332 332 332 332 331 330 329 329 328 328 329 328 327 327 326 325
343 343 343 342 342 342 340 341 340 339 340 339 339 338 338 339 339 340 338 336 336 335 336 336 338 337 336 335 333 335 336 336 336 337 337 337 338 338 338 337 338 337 337 337 337 335 335 335 335 335 335 335 336 336 336 336 336 336 337 336 335 333 333 333 335 335 332 331 332 333 332 332 332 332 331 330 329 329 329 329 328 328 328 328 327
343 343 343 343 342 343 341 339 338 339 339 338 338 338 338 338 339 339 338 338 336 336 337 337 337 336 335 334 334 336 336 336 337 338 338 337 337 337 337 337 335 336 337 337 337 336 337 336 336 337 336 336 336 336 335 336 336 336 337 337 335 334 334 334 335 336 333 331 332 332 333 333 333 332 332 331 330 329 330 329 328 328 328 328 328
343 343 343 343 342 342 341 339 338 338 337 338 339 338 338 338 338 339 338 338 337 337 337 336 336 335 335 335 335 336 336 336 336 337 337 335 335 336 337 335 333 335 337 336 336 336 336 337 337 337 336 335 334 334 335 335 336 336 337 337 335 334 333 333 334 336 334 333 332 332 332 332 332 331 331 332 331 329 328 329 328 328 328 328 328
343 343 343 343 342 341 340 339 338 338 337 337 338 338 338 337 338 338 338 338 337 337 337 336 336 335 334 334 335 335 335 336 336 336 335 335 336 335 335 335 335 336 337 336 335 334 335 336 337 335 334 333 332 333 335 334 335 336 336 336 335 333 333 332 333 335 334 334 333 333 332 331 331 330 331 331 330 329 328 328 328 328 328 327 328
342 343 343 342 342 341 339 339 338 337 337 337 337 337 337 337 337 337 337 337 337 337 336 335 335 335 334 334 335 335 334 335 335 334 335 335 335 335 335 335 336 337 337 336 335 334 335 336 337 335 335 334 331 332 334 334 335 335 335 336 334 332 333 332 333 334 334 334 334 332 332 331 331 330 330 329 328 328 328 327 327 328 327 327 328
341 342 343 341 342 342 339 339 338 338 337 337 337 336 336 337 336 336 336 336 336 337 336 335 335 335 335 334 334 334 335 335 335 334 334 334 333 334 336 335 336 337 337 337 336 336 336 337 338 336 336 335 333 333 334 334 334 334 334 335 333 331 332 333 333 333 333 333 333 332 331 331 331 331 330 329 328 328 328 328 328 328 327 327 327
342 342 343 341 342 342 340 340 339 337 337 337 336 336 337 337 336 335 336 335 335 337 336 335 335 334 334 335 334 335 335 335 335 334 333 333 333 334 336 335 335 336 337 338 337 337 337 337 337 336 335 335 334 334 334 334 334 333 333 332 332 332 333 334 334 334 333 333 332 332 331 331 330 331 330 330 330 330 329 329 329 328 328 327 327
342 342 343 341 341 342 341 340 339 337 337 336 336 337 337 336 336 335 336 335 336 336 335 335 335 335 334 334 335 335 334 334 335 334 333 333 334 334 335 336 336 335 335 337 337 337 336 336 336 335 335 335 335 335 335 334 333 333 333 331 331 332 333 334 334 334 333 332 331 331 331 331 331 330 331 331 331 330 330 330 330 329 329 328 327
341 341 341 341 341 341 341 340 338 337 337 336 337 337 337 336 335 335 335 336 336 335 335 335 335 335 334 334 334 334 334 334 334 334 334 333 334 335 334 335 335 335 335 335 336 336 336 336 335 335 335 334 334 334 335 335 334 332 331 331 331 332 332 332 333 333 332 331 330 331 331 331 331 331 331 330 330 330 330 330 329 329 329 329 328
341 340 340 340 340 340 341 339 338 337 337 337 337 338 337 336 335 335 335 336 336 335 336 335 334 335 335 334 334 334 334 334 334 334 333 333 335 335 334 335 334 333 334 334 335 335 335 335 335 335 334 333 333 334 333 333 333 332 331 331 331 332 331 331 332 333 332 332 330 330 330 330 331 330 330 330 329 330 330 329 329 329 330 329 328
340 339 339 340 338 338 339 339 337 337 337 338 337 337 337 337 336 336 336 337 337 336 336 335 334 334 336 335 334 335 335 334 334 334 334 334 335 334 334 335 334 334 333 332 333 334 333 334 333 334 334 333 333 333 333 332 332 332 332 332 331 331 332 331 331 331 331 332 331 331 331 330 330 330 330 330 329 329 329 329 330 329 329 328 328
339 339 338 338 337 335 336 337 337 337 336 337 336 336 336 336 337 336 335 336 336 335 334 334 335 334 335 335 335 335 335 335 334 334 334 334 335 336 335 334 335 336 334 332 333 334 334 333 332 332 332 333 333 332 333 332 332 332 331 332 332 330 331 332 331 330 330 330 331 332 331 330 329 329 330 330 329 329 329 329 329 328 328 328 328
338 337 334 331 332 332 333 334 334 335 336 336 335 336 336 337 337 337 335 336 335 334 334 335 336 335 334 335 335 336 335 335 335 334 334 335 335 336 336 335 334 335 334 333 334 334 333 332 332 331 331 333 333 332 333 332 332 333 331 331 332 329 329 331 331 331 330 329 330 331 330 329 329 328 329 329 329 329 329 328 328 328 327 327 327
333 331 330 329 330 332 332 332 333 334 336 336 336 336 337 336 336 335 334 333 333 333 334 334 334 335 336 336 336 337 336 335 335 334 334 335 335 335 335 335 334 332 333 334 334 334 333 332 332 332 332 332 331 331 333 332 331 332 332 331 331 331 330 330 330 330 330 330 329 330 329 329 329 328 328 328 328 328 328 328 327 327 327 326 325
330 329 331 332 332 331 331 332 334 335 335 336 336 336 336 337 335 334 333 332 331 332 333 333 334 335 337 336 335 337 337 335 336 335 334 335 335 336 336 335 334 333 333 334 334 333 333 333 334 334 332 332 332 331 332 333 332 332 332 331 331 331 331 330 330 329 330 330 329 329 329 328 327 327 327 327 327 327 328 327 326 326 325 324 323
329 330 332 333 332 331 331 333 334 333 334 336 336 336 336 336 335 334 334 332 331 332 332 333 334 335 335 335 334 336 336 335 335 335 334 333 334 335 335 335 334 332 331 331 332 333 333 333 334 335 334 332 333 332 331 333 333 331 331 331 330 331 330 330 330 329 329 330 329 329 329 328 327 326 326 326 326 327 327 326 325 324 322 321 321
330 331 333 333 332 331 330 332 333 332 333 334 335 336 336 335 334 334 333 332 331 332 332 330 332 333 334 334 333 334 334 334 334 333 332 332 331 332 331 331 331 329 328 328 329 331 333 333 334 335 335 334 333 332 332 333 332 331 331 331 330 330 330 330 330 329 329 330 329 328 328 327 327 326 325 326 326 326 326 325 322 320 318 317 317
Wind_Speed
17 21 24 23 23 23 23 24 25 27 28 28 29 29 29 29 28 27 25 24 24 24 25 26 27 26 25 23 23 22 21 19 18 17 16 16 16 16 15 14 14 14 13 13 13 13 12 12 12 13 14 14 14 15 15 17 17 17 16 15 15 15 17 18 18 18 18 18 19 19 18 18 18 17 17 17 18 18 18 18 17 19 19 18 19
19 21 23 23 23 23 23 24 25 27 29 29 29 29 29 29 28 27 26 25 25 25 25 26 27 27 25 24 23 22 20 19 19 18 16 17 17 15 15 14 14 14 14 14 14 13 13 13 13 13 14 14 14 15 16 17 16 16 16 16 15 17 19 19 19 19 19 19 20 19 19 18 18 18 18 18 18 18 18 17 17 19 19 18 18
21 21 21 23 23 23 24 25 26 27 29 29 29 29 29 29 28 28 27 26 25 26 26 27 28 27 25 24 22 21 20 20 19 18 17 17 16 15 15 15 15 15 14 15 15 14 15 14 14 14 14 14 15 16 17 16 16 16 16 16 16 18 20 21 21 20 20 20 20 19 19 19 19 19 18 18 18 18 18 17 17 17 17 17 17
22 22 20 22 23 23 24 24 25 27 29 29 29 29 29 29 29 28 27 26 26 26 26 28 29 27 25 23 21 21 21 20 19 18 16 16 16 16 15 15 16 15 15 15 15 15 15 15 14 14 14 14 14 15 15 14 15 15 15 15 16 18 20 21 21 20 19 19 18 17 18 19 19 18 17 17 18 18 18 18 17 16 15 16 17
22 22 20 21 20 21 24 25 26 27 29 29 29 28 29 29 29 28 28 27 26 26 26 28 29 26 23 21 21 22 22 20 19 18 17 15 16 15 15 15 16 15 15 15 15 14 14 14 14 14 14 14 14 13 13 13 15 15 14 14 15 18 19 19 19 19 17 17 16 15 15 17 18 17 16 16 17 17 17 18 18 17 16 15 15
23 21 21 21 19 20 24 26 26 28 29 29 29 28 29 30 29 29 29 27 26 26 25 27 27 24 21 20 22 22 21 20 20 19 17 16 16 15 15 15 16 16 15 15 14 13 13 13 13 13 13 13 13 13 12 14 16 15 14 13 14 16 17 16 16 16 16 15 14 13 14 16 17 16 15 16 16 15 15 17 18 17 16 15 15
22 21 21 21 20 21 25 26 27 29 29 29 29 29 30 30 30 29 29 27 26 26 26 27 25 22 20 21 22 21 20 20 20 19 18 17 16 16 15 15 16 16 15 15 13 12 12 12 12 12 12 12 13 12 12 13 15 14 14 13 14 15 15 13 11 10 9 8 9 11 12 14 15 15 14 15 15 15 14 14 17 17 16 15 14
22 21 21 21 20 22 27 27 28 29 29 30 29 30 30 29 29 29 28 26 26 25 26 26 23 21 20 21 20 19 20 20 19 19 18 17 17 17 17 16 16 16 15 14 13 12 11 11 10 10 10 11 11 12 12 12 14 13 13 13 13 14 13 12 10 7 4 3 7 11 11 12 13 13 13 13 14 15 15 14 15 16 16 15 14
22 21 22 21 20 24 27 28 29 29 29 30 30 30 30 29 29 28 27 26 25 25 25 24 22 21 20 20 18 18 20 20 19 19 18 17 17 18 17 17 16 15 15 14 13 12 10 9 8 8 8 9 10 11 12 11 11 11 12 12 12 13 13 13 13 11 9 8 11 14 13 14 13 13 11 12 14 14 15 15 16 15 15 15 15
22 21 22 20 21 26 28 28 29 29 30 29 30 30 29 28 28 27 25 25 25 24 23 22 21 20 20 20 18 20 21 20 19 18 18 17 17 18 17 16 16 15 14 13 12 11 9 8 8 7 7 8 9 10 11 11 10 9 10 10 11 13 12 9 10 11 11 11 12 13 15 15 14 13 12 12 12 12 12 13 15 15 15 16 16
21 21 21 21 23 28 29 28 28 28 29 29 29 28 28 28 27 26 25 25 24 23 22 21 20 20 20 20 20 21 20 19 18 18 19 18 17 18 17 16 16 15 13 12 11 11 9 8 8 7 7 8 8 9 10 10 10 8 8 9 10 11 8 6 8 9 11 12 12 13 14 15 14 13 13 12 11 11 12 14 15 15 15 15 15
21 21 20 22 26 29 28 27 28 27 27 27 27 27 27 27 26 25 25 24 22 22 21 20 20 20 20 20 21 21 19 18 18 19 19 19 18 19 18 16 16 15 13 12 12 11 9 8 7 7 7 7 8 8 9 10 9 8 8 9 11 9 6 8 8 8 11 11 12 14 15 15 14 13 12 13 13 14 14 15 15 15 15 14 15
21 21 20 23 26 27 28 27 27 25 25 25 25 26 27 26 25 25 24 23 21 21 21 20 21 21 21 22 22 20 19 18 19 20 20 19 19 19 18 15 15 14 13 13 12 11 10 8 7 7 7 7 7 7 9 10 10 9 9 11 12 11 11 13 10 8 10 11 12 13 14 15 14 13 12 13 14 14 14 14 15 14 14 14 14
22 20 20 22 22 24 26 25 25 24 23 24 25 26 26 25 24 24 24 23 22 21 20 22 23 22 22 23 23 20 19 19 18 19 20 20 19 19 17 15 14 13 13 13 12 10 9 8 8 7 6 7 7 8 9 9 10 10 11 13 13 10 9 11 10 9 10 12 13 13 14 14 14 13 13 14 14 14 15 14 14 14 13 13 14
22 21 21 20 20 21 23 23 22 21 22 23 25 26 25 24 24 24 24 23 23 22 22 23 22 21 22 23 22 20 19 19 17 18 20 20 19 18 17 16 14 13 13 12 11 9 9 8 8 7 7 6 7 8 9 10 11 11 12 13 10 6 6 8 7 8 10 12 13 13 14 13 13 13 13 14 15 15 15 15 14 14 14 14 14
21 21 20 20 21 21 21 21 22 22 22 24 25 25 25 24 24 24 24 24 24 23 23 22 20 20 21 22 22 20 19 18 17 18 19 19 18 18 17 16 14 13 13 12 10 9 9 9 8 7 7 6 7 9 9 10 11 12 12 11 8 8 10 10 6 7 9 11 12 13 14 12 12 13 13 13 14 15 15 15 15 15 15 15 14
18 20 20 20 21 21 21 20 22 23 23 25 26 25 25 24 25 24 25 24 24 23 21 20 19 21 21 21 21 19 18 16 16 17 17 18 18 18 18 16 15 14 13 12 10 9 10 9 8 7 6 6 7 8 9 10 11 12 13 12 12 13 13 12 8 8 9 10 12 12 13 12 12 13 13 13 13 14 15 15 15 15 15 15 14
14 17 19 19 20 20 21 21 21 22 23 25 25 25 25 25 25 24 24 23 23 21 20 20 20 21 21 20 20 18 17 16 15 15 16 17 17 18 17 15 14 13 13 12 11 10 10 9 7 7 6 5 6 8 9 10 11 12 14 16 16 15 14 13 10 8 9 10 11 12 13 13 13 12 12 12 13 14 14 14 14 14 14 14 14
13 15 14 14 17 19 20 20 20 21 22 22 22 23 25 25 24 24 23 22 21 20 19 20 20 21 21 19 18 18 17 15 14 14 16 16 16 17 16 14 13 12 12 11 10 10 11 9 7 6 5 5 6 8 9 9 10 12 15 16 14 13 11 10 9 8 10 11 11 12 13 13 11 11 11 12 13 13 13 14 14 14 14 14 13
13 14 11 6 9 15 17 18 18 19 20 21 21 22 24 24 23 23 22 21 20 19 19 19 19 19 18 18 18 18 17 15 14 14 16 16 16 17 16 14 12 12 10 9 9 9 10 9 7 5 5 5 5 8 9 9 9 11 13 13 12 11 9 7 8 9 10 11 11 12 13 12 11 11 11 12 12 12 13 13 13 13 13 13 13
12 12 11 7 6 11 15 17 18 18 18 20 21 20 22 21 20 21 21 20 19 18 19 18 18 17 16 17 18 17 15 14 13 13 15 15 15 16 15 14 12 12 11 8 8 8 9 9 7 5 5 4 5 7 8 8 8 10 11 10 10 8 5 6 7 9 10 12 12 12 12 11 10 11 11 11 11 11 12 12 13 13 13 13 12
13 12 10 8 11 14 16 18 17 15 16 20 20 19 19 19 17 18 18 17 17 17 17 17 16 16 16 17 16 15 14 14 14 13 14 14 15 15 15 14 13 12 12 10 9 8 9 9 8 7 6 5 5 6 6 7 8 9 9 9 7 4 3 4 6 8 11 12 11 12 12 10 10 10 11 11 10 10 11 12 12 12 13 13 12
13 13 10 9 14 16 18 19 15 13 15 16 16 18 17 16 17 17 16 16 16 17 16 16 15 15 16 15 15 14 14 15 15 14 13 14 15 14 13 13 13 11 11 11 10 9 9 9 8 8 7 6 6 5 5 6 7 9 8 5 3 2 4 3 4 8 9 11 12 13 12 10 10 10 10 9 8 9 11 11 11 12 12 12 12
12 12 12 13 12 13 17 17 15 15 15 14 14 16 15 14 15 15 15 15 16 16 15 15 14 16 15 15 16 17 17 16 15 14 14 14 14 13 12 12 11 10 10 10 9 10 10 9 8 8 8 7 6 6 6 6 7 8 6 1 2 4 5 3 5 8 9 11 12 13 12 11 10 9 9 9 9 9 10 10 11 11 11 11 11
15 14 17 19 16 15 18 15 15 16 17 17 15 15 16 14 13 14 14 14 15 14 15 14 15 16 16 16 16 17 19 18 16 15 13 13 13 12 11 11 10 9 9 8 8 10 10 9 9 8 8 8 7 7 7 7 7 7 6 3 3 4 4 4 6 8 10 12 12 13 13 12 11 9 9 9 9 8 9 9 10 10 10 10 10
18 17 23 27 25 20 18 17 18 17 17 19 16 14 15 12 12 13 13 13 13 13 14 14 16 17 16 17 16 17 19 19 16 15 13 13 13 12 11 11 10 10 10 9 9 9 10 10 9 9 9 8 7 7 6 6 6 7 7 6 6 5 4 5 7 9 11 12 12 12 11 12 10 9 8 8 8 8 9 9 9 10 10 10 10
18 20 27 31 30 24 20 20 20 18 17 19 19 18 15 12 11 12 12 13 13 13 13 13 16 17 16 17 16 17 20 19 17 16 15 14 13 12 11 11 10 11 10 9 10 9 9 9 8 9 9 8 7 7 7 7 7 7 8 8 8 7 5 6 8 9 13 13 11 12 11 11 10 9 9 8 8 8 9 8 8 8 9 10 10
18 19 24 27 32 32 25 22 21 20 18 20 22 20 17 13 11 11 11 12 13 13 13 12 15 16 16 17 17 20 21 18 16 15 15 13 12 11 11 10 10 10 9 9 10 9 8 8 7 8 8 9 8 8 8 7 7 7 8 8 7 7 6 7 10 12 14 12 11 12 12 11 11 11 10 9 9 8 8 8 8 8 9 10 9
18 16 17 21 30 35 30 26 25 24 23 23 22 19 18 15 12 12 11 12 13 14 14 12 14 14 15 15 15 18 19 17 15 13 13 11 11 10 10 9 9 9 8 8 8 8 8 8 7 7 8 8 8 8 8 7 7 7 8 8 7 7 7 7 11 15 15 13 11 12 12 11 12 12 11 9 9 9 8 8 8 8 8 9 9
17 17 16 19 28 35 32 30 29 28 27 25 21 19 20 16 14 11 9 13 15 15 15 12 12 12 13 12 9 10 12 14 13 11 12 11 10 10 10 9 9 9 8 8 7 7 8 9 9 8 7 6 6 7 7 7 8 9 9 7 6 6 7 5 8 17 14 13 14 12 12 10 11 12 11 10 9 9 8 9 8 8 8 9 9
15 13 11 13 21 30 30 29 29 27 24 24 22 20 18 16 14 10 9 13 13 13 13 13 13 13 14 13 8 9 10 12 12 11 12 12 11 10 10 10 9 8 8 8 9 8 7 7 8 7 6 5 5 7 8 8 9 10 8 7 5 4 5 2 13 19 15 14 15 12 12 11 11 10 9 10 9 9 9 9 9 8 9 9 8
13 9 6 8 15 22 24 24 24 21 19 19 19 17 15 15 14 12 10 12 11 11 10 12 14 13 15 13 9 9 10 10 11 11 12 12 11 10 10 9 9 8 8 8 9 9 7 8 8 7 6 5 5 7 8 8 9 9 7 8 7 2 3 9 17 21 18 16 13 12 13 11 11 10 8 9 9 10 10 10 9 8 8 8 7
11 12 13 13 13 15 20 21 19 17 15 15 15 15 14 13 13 11 11 11 10 10 10 12 13 12 13 11 9 8 9 10 10 10 11 11 11 10 10 9 9 9 8 8 9 8 8 8 9 8 7 5 5 6 6 7 7 6 5 4 6 5 5 6 11 17 18 16 12 12 12 9 9 9 8 8 9 10 11 10 9 9 8 8 8
13 15 16 17 14 15 18 18 17 16 14 12 13 15 13 12 11 10 11 13 11 9 12 14 12 11 12 12 11 10 9 11 11 11 11 11 11 10 10 9 9 9 9 8 7 7 7 8 8 8 7 6 6 6 5 5 5 4 4 1 4 9 9 7 11 15 16 14 12 12 11 9 9 8 8 8 8 10 10 10 9 9 8 8 8
15 17 18 19 17 17 18 18 18 17 15 12 13 16 14 12 12 10 10 13 13 11 11 12 12 12 13 15 14 11 10 12 12 11 11 11 11 10 10 9 9 9 8 8 7 6 7 8 8 7 7 6 6 5 5 4 4 4 2 3 1 11 12 9 10 12 13 12 12 13 11 9 8 8 8 8 8 9 10 10 9 8 8 8 8
16 17 18 19 17 17 19 20 19 17 16 15 14 15 13 11 12 11 10 11 12 11 10 11 13 15 15 15 14 11 10 11 12 11 11 12 11 11 9 9 10 9 8 8 8 7 7 7 6 7 7 7 6 6 5 4 4 3 1 1 1 8 9 8 8 10 11 9 9 10 9 8 7 7 8 8 8 8 9 10 9 9 8 9 9
16 17 18 19 18 16 19 23 21 19 17 14 12 11 10 10 11 10 11 11 9 9 10 11 14 16 16 14 14 13 11 11 13 12 13 13 12 11 10 10 10 9 8 8 8 7 7 6 6 7 6 7 7 6 6 5 4 3 1 1 2 4 6 7 7 9 10 8 6 7 7 8 8 8 8 8 8 8 10 10 10 10 9 10 10
15 16 17 19 20 18 18 23 24 20 16 12 11 10 9 10 10 9 10 10 8 7 8 10 13 16 17 14 13 15 13 12 13 13 14 13 10 11 11 10 10 8 9 8 8 8 7 6 7 7 6 7 7 7 8 6 5 3 3 3 4 4 4 7 7 8 9 7 6 6 7 8 8 8 9 9 9 10 11 11 11 10 10 10 9
15 16 17 18 20 19 17 19 21 19 16 13 11 11 11 10 10 10 10 10 8 7 8 10 12 15 16 13 13 16 14 11 12 13 13 11 9 10 11 11 10 8 8 8 8 8 7 6 6 6 5 6 7 8 7 5 5 4 4 4 6 5 3 6 7 6 8 7 6 5 6 7 6 6 8 8 9 10 10 11 11 10 10 9 8
15 16 16 18 20 19 18 18 20 20 18 16 13 13 13 13 12 11 11 11 10 9 10 11 11 12 12 11 13 16 14 10 11 13 12 10 9 9 10 10 10 9 7 7 7 7 7 6 5 5 4 4 6 6 5 5 5 5 6 6 7 6 4 6 6 5 7 6 5 4 4 7 6 6 9 9 9 9 9 9 9 9 10 9 8
15 16 16 19 20 20 20 20 20 20 20 18 15 14 14 14 14 13 11 11 11 11 12 12 10 10 10 11 13 13 13 12 10 10 11 11 9 9 9 8 8 8 7 6 6 6 6 6 5 5 5 4 4 5 5 6 6 6 7 8 8 6 6 6 6 4 5 5 6 5 4 6 6 7 9 10 9 9 8 8 8 8 8 9 8
16 17 17 18 20 20 20 20 20 20 20 19 17 16 14 13 13 12 11 11 11 12 13 13 12 11 11 13 14 13 14 13 11 11 12 12 10 9 8 7 6 7 7 6 6 6 7 6 6 6 5 5 4 5 5 6 5 5 5 8 7 6 7 7 6 5 5 5 6 5 4 5 4 5 8 10 9 9 9 8 8 7 7 7 7
16 18 18 19 19 19 19 20 21 21 20 20 18 15 12 12 12 12 12 10 10 12 13 13 13 12 11 13 14 14 13 12 12 12 11 10 9 8 8 8 7 8 9 8 7 7 7 6 6 6 5 5 4 5 5 4 1 2 4 5 3 3 5 5 5 6 5 4 4 3 3 5 5 6 7 10 11 10 9 8 7 7 7 6 6
17 19 20 20 19 18 18 19 20 20 19 18 15 12 11 12 13 12 10 8 9 10 11 12 12 12 12 12 12 12 12 11 11 10 9 9 8 7 8 8 7 8 9 9 9 8 8 7 7 6 6 6 5 5 5 5 1 0 3 3 2 1 2 4 5 5 4 4 4 4 3 4 5 7 7 10 12 11 10 9 8 8 6 5 7
18 18 18 17 16 15 16 18 19 17 15 14 16 17 16 15 13 11 9 7 8 10 10 11 12 12 13 14 13 12 12 11 10 9 8 9 9 7 7 9 8 7 8 9 10 9 8 8 8 7 7 5 6 6 6 5 2 1 2 3 3 0 1 6 7 4 4 4 4 4 5 5 4 6 9 9 11 11 9 9 8 7 6 7 9
18 16 13 9 9 11 12 14 15 13 12 14 18 20 17 13 12 12 11 9 9 10 12 11 11 13 13 13 13 13 12 10 9 8 8 9 9 7 6 8 9 7 8 9 9 9 8 9 9 8 7 4 4 7 7 6 3 1 2 2 2 3 4 7 5 4 6 5 5 6 6 7 6 7 8 7 10 10 8 9 8 8 9 11 12
10 6 3 6 6 7 6 6 8 10 14 16 17 17 13 10 10 10 10 11 11 11 13 12 12 13 12 12 12 11 10 9 8 8 8 8 9 9 7 7 8 9 8 8 8 8 8 9 9 7 7 5 5 6 5 6 5 3 3 2 1 5 8 7 4 5 6 4 6 8 8 9 9 9 8 8 9 8 7 9 10 12 13 14 15
9 7 7 8 4 4 1 3 8 12 16 15 16 17 14 13 14 13 13 13 12 12 13 13 13 12 10 10 10 9 10 9 9 8 7 7 8 8 9 7 7 9 9 7 8 8 8 10 8 6 6 6 6 6 3 5 5 4 4 3 3 5 7 9 9 6 5 4 6 7 8 10 10 10 9 9 9 8 9 9 11 13 13 14 16
9 8 11 11 11 9 4 7 14 17 17 14 15 18 16 17 18 15 15 15 13 14 14 12 12 10 9 9 9 8 9 9 9 8 8 8 7 7 8 7 7 8 7 6 7 8 8 10 8 5 6 7 6 5 4 5 4 4 5 5 5 5 5 8 10 8 6 6 6 6 7 9 9 9 8 8 9 10 10 10 11 13 13 14 15
13 12 12 14 17 17 14 16 21 22 18 15 16 17 14 16 18 15 15 16 14 15 14 11 11 10 9 9 9 9 9 9 9 9 8 8 8 7 8 7 6 6 5 4 5 6 7 9 8 6 6 7 5 3 4 5 4 4 5 5 5 5 4 5 8 9 8 6 6 7 8 9 8 7 6 7 9 9 11 10 10 12 12 13 13
17 15 13 15 19 22 22 22 22 21 19 17 17 16 13 15 17 14 14 14 12 12 11 10 11 10 10 10 9 10 10 10 10 9 9 8 7 7 7 7 6 5 4 4 5 5 6 7 8 7 6 6 5 4 5 6 6 5 6 5 4 3 2 2 4 7 7 6 7 7 8 10 10 8 6 7 9 10 11 10 10 12 12 13 13
Wind_Direction
142 139 145 161 161 161 164 163 166 166 167 167 167 168 166 164 163 161 159 157 156 156 155 155 155 154 151 148 146 142 138 135 131 126 124 123 122 120 118 118 118 117 115 115 112 109 105 102 99 97 99 100 99 99 100 99 104 111 109 107 101 91 91 93 94 95 95 94 92 90 89 91 88 82 80 81 82 80 78 75 73 73 73 73 72
143 141 146 157 160 162 163 164 166 166 168 168 168 169 166 165 163 161 159 158 158 158 156 156 156 154 152 149 147 143 139 137 132 128 128 125 124 122 121 121 120 118 116 115 113 110 104 100 98 97 98 100 101 100 103 103 110 117 113 114 105 94 95 96 96 96 95 95 94 90 87 89 88 83 80 80 80 78 78 79 76 74 73 71 70
140 142 143 151 161 160 162 165 166 168 169 169 170 168 166 164 163 163 161 160 160 159 156 155 155 154 151 149 147 143 141 139 134 131 129 127 127 126 125 125 123 122 120 118 116 110 102 99 96 97 99 102 103 104 106 106 116 119 116 118 105 97 98 97 96 95 94 94 93 90 88 86 85 83 82 80 78 75 75 76 75 75 76 73 70
142 143 140 150 160 160 164 165 166 169 169 170 170 168 166 165 165 164 162 162 162 160 155 154 155 153 152 150 147 144 143 141 137 132 130 132 134 131 129 128 126 125 125 122 118 112 105 100 94 92 96 103 108 110 110 110 120 121 120 119 108 103 98 94 94 93 92 92 91 90 91 88 84 81 81 79 77 74 71 70 69 70 72 74 72
143 146 140 146 151 158 164 164 167 168 169 171 169 168 166 166 167 165 164 163 162 159 153 154 155 154 153 150 147 144 144 141 136 135 136 139 137 133 133 132 129 131 130 126 122 117 111 104 98 93 92 100 110 113 113 119 125 124 122 119 114 107 98 97 97 93 90 90 90 90 92 89 86 81 78 76 74 72 70 70 68 65 63 65 69
143 147 142 143 144 155 162 164 166 167 170 169 168 167 167 167 167 165 165 163 162 158 152 154 155 153 150 147 146 143 143 142 141 142 142 140 139 139 137 135 134 136 134 129 127 122 116 108 104 100 94 94 105 114 118 127 130 126 124 122 120 112 104 102 102 101 101 104 98 91 91 87 84 80 74 70 65 65 70 73 70 67 64 62 64
143 148 146 145 145 158 163 164 166 167 168 167 169 167 167 167 166 165 164 162 160 156 152 153 152 148 146 146 146 144 145 147 148 147 144 144 145 143 139 138 140 139 136 133 131 127 120 114 110 108 102 95 97 104 113 130 135 130 129 127 124 118 107 96 99 110 110 121 108 89 89 85 82 78 72 70 64 59 65 73 73 69 67 66 65
146 152 150 147 151 164 163 164 165 165 167 166 168 167 167 166 164 164 162 160 156 153 151 149 147 144 145 147 148 148 151 152 151 148 148 151 147 141 140 142 143 141 137 136 134 130 123 117 115 110 107 102 98 98 105 125 137 136 134 133 130 124 110 87 80 87 83 106 87 71 81 89 85 81 74 74 72 64 62 66 72 70 70 71 70
150 155 152 150 156 165 163 164 164 164 165 166 167 166 166 163 163 160 157 155 152 151 148 145 144 145 148 149 150 151 152 151 149 149 151 150 145 144 145 146 145 143 141 141 137 132 126 119 116 116 114 109 104 102 104 117 135 143 141 138 133 124 109 87 65 55 63 79 73 58 69 89 84 80 78 79 85 83 77 70 68 68 70 71 71
152 154 153 153 158 165 163 163 163 162 162 163 165 164 163 161 159 156 153 152 152 151 146 144 145 149 151 150 151 152 152 149 149 151 151 147 146 148 147 148 146 144 143 142 138 133 129 125 121 123 120 112 106 103 103 107 121 140 150 146 132 120 107 86 48 41 64 72 73 64 65 79 78 78 79 81 90 89 83 76 71 69 71 71 71
152 155 155 156 163 167 165 164 162 160 160 161 161 159 159 158 156 154 154 154 154 152 147 147 149 152 153 153 151 152 152 151 153 154 153 149 148 148 147 149 148 147 145 141 138 134 132 131 132 135 127 113 107 102 101 101 106 121 145 148 128 116 102 64 36 52 76 73 77 76 71 76 77 78 77 76 82 80 75 75 75 73 73 73 72
154 157 156 160 167 167 163 162 159 156 156 157 157 157 157 155 155 155 156 157 155 153 152 152 154 154 154 154 151 151 151 152 157 157 156 151 149 148 150 152 151 150 145 143 141 138 140 141 142 140 126 112 110 107 104 102 103 108 126 141 129 109 78 49 44 69 77 73 78 77 75 77 77 79 79 77 80 81 82 81 79 75 72 73 73
158 159 156 161 167 163 160 159 156 154 151 151 153 155 156 154 155 157 158 158 156 157 157 158 156 156 159 157 152 151 151 154 159 159 157 152 151 152 153 154 151 151 147 147 146 144 148 150 150 141 125 115 113 111 110 107 106 108 119 132 120 95 70 55 55 78 76 75 80 79 79 76 77 80 81 83 83 85 87 85 82 79 76 78 77
160 158 151 155 158 159 158 155 153 152 150 151 153 155 156 156 157 158 159 159 159 158 157 158 158 161 164 158 153 152 152 156 162 162 158 153 153 155 155 155 152 152 151 149 147 150 155 157 155 140 123 114 114 116 112 109 106 106 118 127 114 95 75 59 63 83 80 80 82 83 82 79 82 81 81 84 85 87 88 87 85 82 81 82 80
159 153 146 145 149 157 157 151 149 149 150 152 154 156 156 156 158 159 160 160 159 157 157 158 160 166 163 155 153 153 154 157 160 162 159 155 154 156 158 156 153 156 155 152 151 160 162 158 152 135 117 111 119 119 113 110 106 103 115 125 114 92 72 64 72 83 82 85 84 84 84 84 88 83 83 86 85 87 87 87 87 85 82 81 82
152 145 139 141 146 154 155 152 151 152 154 155 156 156 157 157 159 159 159 160 158 157 158 158 161 165 158 153 154 154 155 155 156 160 160 159 157 159 162 159 158 159 157 154 160 169 163 157 150 132 113 111 126 123 116 111 104 103 111 118 105 83 77 72 80 86 84 89 88 87 87 87 89 85 84 85 85 87 88 88 87 86 83 82 83
143 137 134 140 146 151 153 156 155 156 158 158 160 159 158 158 159 160 159 159 158 158 158 159 160 158 154 152 153 153 154 153 155 160 161 162 164 165 164 163 161 159 159 161 167 169 160 161 153 131 113 111 131 129 117 108 102 99 102 108 97 85 81 75 80 86 82 87 89 88 88 88 89 87 86 85 85 87 89 89 87 85 83 83 82
121 123 131 141 148 152 153 158 157 157 160 159 161 161 159 159 159 160 159 159 158 158 159 158 156 153 152 151 151 153 153 153 157 161 161 164 168 169 166 165 162 158 160 166 173 169 163 166 150 130 117 108 131 136 121 109 103 97 100 104 96 89 86 81 88 92 84 85 87 87 89 91 92 90 87 85 85 86 88 88 88 87 86 85 82
104 112 130 145 150 154 152 154 155 155 158 157 159 159 158 158 159 159 157 157 156 157 155 153 152 151 152 150 151 154 154 154 157 159 160 163 165 168 170 169 166 164 165 169 173 168 167 167 146 130 122 107 128 142 133 118 107 104 103 97 88 84 78 81 94 94 86 85 87 91 94 94 94 91 88 88 89 88 88 88 87 87 87 86 84
119 126 132 149 151 154 151 150 153 155 155 154 155 155 157 158 161 160 157 156 153 153 152 151 151 151 151 151 153 154 155 156 157 158 160 162 161 165 172 173 170 173 178 175 167 165 170 164 146 136 126 113 122 140 144 131 119 114 104 89 79 69 59 75 93 91 89 89 91 97 100 99 96 92 89 90 89 89 89 89 88 87 88 87 87
133 141 138 151 153 151 154 153 157 158 154 151 151 154 158 157 160 162 160 158 155 153 154 155 153 152 153 154 156 154 153 154 154 159 164 163 161 163 169 172 166 169 182 184 174 172 174 162 149 143 135 129 118 132 147 144 134 119 104 88 73 60 62 91 99 100 98 96 99 103 104 101 98 97 94 92 91 91 91 91 89 89 89 87 90
150 152 136 151 165 159 159 158 159 163 156 147 148 156 158 154 156 158 160 161 161 160 159 157 152 154 157 157 157 155 154 156 157 160 164 161 159 161 161 165 164 169 180 183 184 180 177 163 152 153 149 144 119 123 144 152 150 127 109 89 70 59 85 98 108 108 100 102 106 107 106 102 99 99 97 96 96 96 94 94 93 93 92 90 91
160 156 137 144 162 162 162 159 155 157 152 142 146 157 156 154 155 154 157 162 165 165 160 154 152 159 159 160 161 158 158 163 162 157 157 155 156 159 156 157 161 169 178 179 181 179 178 168 158 160 157 152 139 148 159 162 163 144 123 88 72 121 109 101 112 105 101 107 111 110 109 108 104 101 101 98 95 97 98 98 98 97 96 95 96
163 161 151 137 142 160 163 156 148 147 146 142 148 156 155 157 156 155 157 160 167 164 157 153 157 166 164 165 166 159 161 166 164 156 153 154 155 159 160 158 156 161 166 170 177 178 177 174 170 165 164 174 177 180 172 173 180 166 161 149 152 144 129 128 104 100 107 114 116 112 108 109 109 105 104 101 97 101 104 102 102 100 99 100 98
165 164 157 141 137 154 158 150 147 148 150 148 150 159 160 161 161 161 160 162 168 159 157 161 162 171 168 165 166 159 161 164 160 158 155 156 158 161 167 165 161 161 156 159 174 177 176 178 183 178 186 202 199 191 180 180 184 180 192 204 174 158 158 145 113 108 113 115 117 110 103 102 108 113 110 110 109 107 109 107 105 103 100 99 95
163 162 159 151 146 153 159 155 154 153 155 155 158 173 172 168 167 166 163 162 168 164 166 168 166 174 171 167 171 164 161 160 159 163 163 162 164 166 171 170 170 172 168 172 175 174 181 182 187 195 204 212 202 193 191 188 188 195 201 196 184 180 184 151 126 122 116 116 120 116 108 99 101 113 117 116 114 110 112 110 107 105 101 99 96
166 164 162 157 148 150 158 161 160 151 155 166 168 176 180 173 170 170 167 165 174 173 167 167 169 173 170 170 174 165 158 160 162 162 166 169 166 165 166 168 172 176 181 182 174 175 186 182 185 201 208 214 208 198 202 200 196 207 207 201 189 179 182 157 141 131 119 118 124 127 121 107 98 104 116 118 114 114 113 111 106 103 104 103 97
166 169 165 162 152 149 157 164 159 148 161 178 171 171 176 170 169 174 172 175 181 170 156 161 169 169 168 172 174 168 161 159 163 160 162 165 159 159 160 164 167 169 174 174 172 175 180 181 187 201 205 212 213 207 210 206 200 211 214 204 185 180 190 173 155 136 124 126 127 128 125 112 100 100 113 120 117 119 118 117 112 102 100 106 108
172 179 176 173 158 150 157 162 155 156 174 181 171 172 179 171 168 176 179 183 181 167 161 157 160 163 165 169 171 172 165 158 161 160 158 154 148 151 152 155 156 155 157 156 162 165 167 176 183 193 202 206 206 205 211 211 204 209 217 205 191 190 185 185 168 143 130 134 128 121 124 117 106 104 112 121 123 124 125 124 119 112 104 108 113
174 178 180 182 165 154 157 161 161 166 175 174 169 176 180 172 166 176 182 183 183 174 173 165 157 160 156 155 162 164 158 153 155 153 149 144 139 140 140 142 143 146 147 142 145 154 167 176 179 186 190 195 196 196 206 217 213 210 218 202 193 199 192 212 163 147 143 135 126 118 123 123 116 111 112 119 127 128 127 124 120 116 106 105 109
173 184 211 213 173 156 154 161 167 167 166 169 173 175 175 168 163 173 170 165 176 176 179 177 165 165 159 153 157 149 144 147 148 147 147 144 141 137 138 140 137 141 145 145 147 148 158 169 175 183 182 195 199 191 197 217 222 212 216 205 200 212 209 359 83 123 147 137 128 128 128 126 122 120 120 121 125 127 124 121 119 109 100 101 109
174 174 202 204 171 155 147 153 164 164 162 169 171 166 164 166 165 174 168 148 155 166 180 183 168 174 174 161 158 151 145 147 146 147 149 148 148 143 141 141 140 141 145 150 153 151 154 162 167 173 177 191 192 188 198 217 228 219 218 208 198 169 67 39 75 114 141 140 138 144 137 128 122 123 128 127 125 125 123 122 117 109 107 105 102
157 142 145 154 162 155 142 142 154 161 162 167 167 163 162 165 167 175 170 149 150 163 177 180 169 174 180 170 166 164 155 152 148 148 151 151 147 144 144 143 142 142 145 149 154 156 161 165 167 172 175 179 184 195 209 217 226 237 238 189 154 122 75 65 100 119 130 139 149 153 145 136 128 126 133 136 133 129 124 124 120 113 112 105 96
145 142 149 154 161 156 143 141 148 154 157 163 167 170 168 163 172 180 167 160 163 170 177 178 171 170 179 183 176 169 166 160 156 153 153 152 146 144 146 146 147 146 147 151 154 158 161 169 174 179 182 184 190 197 212 214 221 240 250 268 108 116 115 116 120 115 120 137 150 155 153 150 145 140 140 138 138 137 129 126 127 120 111 100 93
148 148 157 160 162 157 149 146 148 156 166 174 174 174 175 170 179 179 164 167 168 171 182 182 181 182 182 184 175 167 172 165 159 158 155 155 153 151 151 151 152 149 152 157 162 166 164 174 181 182 184 188 191 195 207 207 221 231 230 273 75 103 108 119 123 116 124 140 149 156 161 160 159 154 150 144 140 145 142 137 135 126 117 107 99
153 151 160 161 159 156 152 147 150 165 178 185 182 177 177 177 184 177 162 169 167 167 183 187 191 191 180 177 175 169 172 166 162 159 158 161 160 157 157 161 161 156 159 162 164 169 167 173 179 181 183 184 182 188 206 203 209 226 200 256 64 84 92 117 129 118 127 150 154 159 168 161 157 153 149 144 139 146 150 146 136 128 124 118 114
157 157 162 160 155 153 152 153 162 175 180 180 180 180 177 177 188 178 162 166 165 162 179 192 194 188 175 174 179 172 170 172 171 166 161 166 166 162 165 166 165 165 167 168 167 167 168 173 177 181 181 181 184 188 199 201 193 196 157 118 76 67 80 114 141 129 134 157 153 162 170 154 161 161 149 143 141 144 145 141 130 125 129 129 126
161 163 166 162 154 153 155 162 171 175 176 176 177 181 178 179 187 177 162 161 163 164 178 192 189 180 171 171 180 180 179 175 172 171 164 169 171 169 173 165 162 171 169 166 170 171 169 176 181 181 182 186 197 207 202 192 186 170 138 121 90 73 81 114 143 139 139 151 148 170 166 145 165 166 152 149 145 143 138 137 132 126 130 135 136
163 166 169 167 161 164 165 162 166 168 174 181 177 178 179 179 181 174 166 162 163 169 177 178 173 173 171 173 185 186 185 174 170 173 166 174 181 174 172 163 163 170 164 160 168 175 171 174 183 183 191 186 182 202 207 178 164 147 130 118 97 103 116 120 135 143 142 148 150 178 167 144 157 158 153 153 145 144 141 142 141 130 124 127 134
170 170 170 169 167 170 167 157 158 164 171 177 174 176 180 179 177 174 169 168 168 169 177 173 166 171 170 173 185 184 181 176 178 176 168 181 188 173 169 166 163 160 157 159 161 171 171 172 180 182 194 179 164 186 198 167 154 135 117 95 85 106 125 117 127 138 135 141 147 161 163 155 165 165 156 152 146 141 140 146 144 132 123 118 122
176 173 171 172 170 166 164 164 166 168 170 174 175 176 180 178 176 175 172 172 172 167 174 175 171 178 173 170 178 180 179 179 185 181 175 189 190 176 171 165 160 154 151 150 148 159 163 167 173 178 189 181 171 177 180 177 162 143 123 98 85 93 100 107 120 127 125 141 156 158 164 165 173 172 159 155 144 131 134 138 131 130 127 120 120
182 180 177 175 174 167 166 173 175 174 174 173 173 177 179 176 174 176 174 174 175 171 175 177 174 176 176 177 181 185 184 177 179 181 184 192 185 174 167 156 156 147 139 141 144 153 157 170 173 173 184 180 177 168 177 194 164 150 145 117 101 90 92 102 115 121 124 139 150 148 154 162 157 149 149 153 144 132 135 126 118 131 130 125 130
188 188 187 182 179 172 169 174 174 172 174 174 174 173 171 173 175 175 176 182 183 179 180 180 180 176 171 177 182 185 183 174 177 184 189 187 173 170 166 159 162 149 145 151 155 164 166 176 180 175 181 178 182 175 180 206 162 149 174 140 129 130 110 104 111 117 111 118 126 117 144 159 145 136 137 146 147 139 133 121 115 120 115 122 128
196 196 194 187 182 176 170 172 173 174 177 173 164 159 164 174 176 173 178 185 181 182 181 176 179 176 166 171 178 180 177 175 185 191 188 172 160 177 172 159 163 158 161 163 161 176 178 180 185 180 186 182 176 180 190 203 224 82 178 136 103 170 145 129 124 110 103 120 115 94 105 121 131 136 125 125 128 124 124 125 118 109 108 121 112
199 200 197 191 186 177 169 170 174 180 178 162 156 164 173 174 167 163 167 171 171 175 177 176 182 180 171 171 176 180 180 183 191 192 184 165 160 182 173 154 155 157 169 171 168 179 182 185 188 179 192 199 171 173 188 192 209 228 137 110 103 272 219 147 138 112 110 122 112 96 86 81 93 119 113 101 100 104 111 113 109 109 117 110 94
202 202 197 191 179 161 163 172 173 174 166 161 172 178 175 170 161 158 163 172 174 174 177 181 186 184 179 178 179 181 183 186 190 188 181 167 163 171 166 158 159 159 173 177 172 179 182 185 187 181 190 205 170 177 184 179 204 253 137 125 149 181 170 151 146 126 117 101 103 113 90 77 74 92 108 98 94 101 102 100 98 94 96 90 83
186 172 130 47 65 126 154 176 164 167 170 173 180 178 169 166 162 161 169 175 177 182 185 184 186 186 184 183 182 183 184 184 185 184 175 168 169 167 163 164 168 175 180 176 170 175 182 181 183 186 183 182 176 184 180 165 185 213 178 158 139 154 157 160 167 143 129 100 105 113 94 85 79 77 88 87 90 99 100 108 106 93 90 89 85
95 99 103 63 72 143 122 149 162 180 185 180 175 172 172 172 171 173 178 180 184 189 186 183 187 188 183 182 182 182 184 181 176 178 172 170 174 166 161 166 175 183 183 176 172 175 178 172 172 182 177 172 182 193 182 159 182 205 182 181 183 159 152 161 167 153 137 129 120 111 97 94 87 77 77 78 86 97 97 102 103 96 93 93 89
121 170 158 142 159 161 127 156 180 193 193 184 178 178 179 176 173 174 178 181 184 183 182 185 185 180 178 182 183 180 179 173 167 169 168 169 171 162 160 167 173 178 180 179 175 176 177 168 164 172 169 165 175 192 186 173 194 204 187 204 213 189 160 158 159 149 141 141 138 135 122 109 90 70 70 84 89 93 97 99 100 100 98 96 92
157 176 158 147 152 151 152 169 186 193 185 179 182 182 182 179 175 171 174 176 172 175 182 185 177 172 177 182 184 179 171 165 163 162 161 163 165 159 157 160 163 169 175 175 167 170 175 168 163 164 167 171 173 183 188 187 200 197 198 220 223 205 188 167 155 147 153 155 144 149 145 132 108 76 77 103 103 100 104 106 106 105 103 100 94
148 158 163 161 159 162 170 175 181 181 173 176 183 183 184 183 179 172 171 172 166 171 186 183 169 169 178 185 188 178 163 158 157 152 152 154 151 150 150 147 151 163 169 168 165 171 174 165 162 164 172 177 172 175 187 189 194 200 216 226 223 229 200 176 171 147 150 156 141 140 138 132 122 107 103 114 115 113 111 111 111 107 104 102 98